M I D A S
Marine Information and Data Acquisition System
Tripno 2149 of the Zeeleeuw from 2011-07-20 06:56:54 to 2011-07-20 15:44:48
Back to CruiseResearch ActivitiesStationsMapUnderway DataData graphs

EquipmentUnitsComments
TimeDGPSUTC
LatitudeDGPSDM.mWGS84
LongitudeDGPSDM.mWGS84
SpeedMeteo Stationm/sRelative wind speed
DirectionMeteo StationdegRelative wind direction
TemperatureMeteo Stationdeg CelciusAir temperature
PressureMeteo StationPaAtmospheric pressure
HumidityMeteo Station%Relative humidity
Missing or incorrect values are displayed as -999
Metereological data collected by the RV Zeeleeuw from 2011-07-20 06:46:38 to 2011-07-20 16:07:07
                                                                                    Next 1000 lines
Time Latitude Longitude Speed Direction Temperature Pressure Humidity
2011-07-20 06:46:48 51°13.635 2°56.019 -999 25 16.4 100790 48
2011-07-20 06:46:52 51°13.635 2°56.019 -999 55 16.4 100790 48
2011-07-20 06:46:58 51°13.635 2°56.019 -999 25 16.3 100790 48
2011-07-20 06:47:03 51°13.635 2°56.019 -999 55 16.3 100790 48
2011-07-20 06:47:08 51°13.635 2°56.019 -999 25 16.4 100790 48
2011-07-20 06:47:12 51°13.635 2°56.019 -999 55 16.4 100790 48
2011-07-20 06:47:17 51°13.635 2°56.019 -999 25 16.3 100790 47
2011-07-20 06:47:23 51°13.635 2°56.019 -999 55 16.3 100790 47
2011-07-20 06:47:28 51°13.635 2°56.019 -999 25 16.3 100790 48
2011-07-20 06:47:32 51°13.635 2°56.019 -999 55 16.3 100790 48
2011-07-20 06:47:37 51°13.635 2°56.019 -999 25 16.4 100790 48
2011-07-20 06:47:42 51°13.635 2°56.019 -999 55 16.4 100790 48
2011-07-20 06:47:48 51°13.635 2°56.019 -999 25 16.4 100790 48
2011-07-20 06:47:52 51°13.635 2°56.019 -999 55 16.4 100790 48
2011-07-20 06:47:57 51°13.635 2°56.019 -999 25 16.4 100790 49
2011-07-20 06:48:03 51°13.636 2°56.019 -999 55 16.4 100790 49
2011-07-20 06:48:08 51°13.636 2°56.02 -999 25 16.4 100790 49
2011-07-20 06:48:13 51°13.636 2°56.02 -999 55 16.4 100790 49
2011-07-20 06:48:18 51°13.636 2°56.02 -999 25 16.5 100790 49
2011-07-20 06:48:23 51°13.636 2°56.02 -999 55 16.5 100790 49
2011-07-20 06:48:27 51°13.636 2°56.02 -999 25 16.5 100790 49
2011-07-20 06:48:33 51°13.636 2°56.02 -999 55 16.5 100790 49
2011-07-20 06:48:37 51°13.636 2°56.02 -999 25 16.5 100790 48
2011-07-20 06:48:42 51°13.636 2°56.02 -999 55 16.5 100790 48
2011-07-20 06:48:47 51°13.636 2°56.02 -999 25 16.5 100790 48
2011-07-20 06:48:52 51°13.636 2°56.02 -999 55 16.5 100790 48
2011-07-20 06:48:57 51°13.636 2°56.02 -999 24 16.5 100790 48
2011-07-20 06:49:02 51°13.636 2°56.02 -999 55 16.5 100790 48
2011-07-20 06:49:07 51°13.636 2°56.02 0.1 21 16.5 100790 48
2011-07-20 06:49:13 51°13.636 2°56.02 0.1 55 16.5 100790 48
2011-07-20 06:49:18 51°13.636 2°56.02 0.1 24 16.5 100790 48
2011-07-20 06:49:22 51°13.636 2°56.02 -999 55 16.5 100790 48
2011-07-20 06:49:28 51°13.636 2°56.02 -999 24 16.5 100790 48
2011-07-20 06:49:33 51°13.636 2°56.02 -999 55 16.5 100790 48
2011-07-20 06:49:38 51°13.636 2°56.02 -999 24 16.5 100790 48
2011-07-20 06:49:42 51°13.636 2°56.02 -999 54 16.5 100790 48
2011-07-20 06:49:48 51°13.636 2°56.019 -999 24 16.5 100790 48
2011-07-20 06:49:53 51°13.636 2°56.019 -999 55 16.5 100790 48
2011-07-20 06:49:58 51°13.636 2°56.019 -999 24 16.5 100790 47
2011-07-20 06:50:02 51°13.636 2°56.019 -999 55 16.5 100790 47
2011-07-20 06:50:07 51°13.636 2°56.019 -999 24 16.5 100790 48
2011-07-20 06:50:13 51°13.636 2°56.019 -999 55 16.5 100790 48
2011-07-20 06:50:18 51°13.636 2°56.019 -999 28 16.5 100790 48
2011-07-20 06:50:22 51°13.636 2°56.019 -999 55 16.5 100790 48
2011-07-20 06:50:28 51°13.636 2°56.019 0.1 20 16.5 100790 48
2011-07-20 06:50:33 51°13.636 2°56.019 0.2 58 16.5 100790 48
2011-07-20 06:50:38 51°13.636 2°56.019 0.1 26 16.5 100790 48
2011-07-20 06:50:42 51°13.636 2°56.019 -999 55 16.5 100790 48
2011-07-20 06:50:48 51°13.636 2°56.019 -999 25 16.5 100790 49
2011-07-20 06:50:53 51°13.636 2°56.019 -999 55 16.5 100790 49
2011-07-20 06:50:58 51°13.636 2°56.019 -999 25 16.5 100790 48
2011-07-20 06:51:03 51°13.636 2°56.019 -999 55 16.5 100790 48
2011-07-20 06:51:07 51°13.636 2°56.019 -999 25 16.4 100790 48
2011-07-20 06:51:13 51°13.636 2°56.019 1 55 16.4 100790 48
2011-07-20 06:51:18 51°13.636 2°56.019 0.1 25 16.4 100790 48
2011-07-20 06:51:23 51°13.636 2°56.019 0.1 55 16.4 100790 48
2011-07-20 06:51:27 51°13.636 2°56.019 -999 25 16.4 100790 47
2011-07-20 06:51:33 51°13.636 2°56.019 -999 55 16.4 100790 47
2011-07-20 06:51:38 51°13.636 2°56.019 -999 25 16.4 100800 48
2011-07-20 06:51:43 51°13.636 2°56.019 -999 55 16.4 100800 48
2011-07-20 06:51:47 51°13.636 2°56.019 -999 25 16.4 100790 48
2011-07-20 06:51:52 51°13.636 2°56.019 -999 55 16.4 100790 48
2011-07-20 06:51:57 51°13.636 2°56.019 -999 25 16.4 100790 48
2011-07-20 06:52:03 51°13.636 2°56.019 -999 55 16.4 100790 48
2011-07-20 06:52:07 51°13.636 2°56.019 -999 25 16.3 100790 48
2011-07-20 06:52:12 51°13.636 2°56.019 -999 55 16.3 100790 48
2011-07-20 06:52:18 51°13.636 2°56.019 -999 25 16.3 100790 48
2011-07-20 06:52:23 51°13.636 2°56.019 -999 55 16.3 100790 48
2011-07-20 06:52:28 51°13.636 2°56.019 -999 25 16.3 100790 48
2011-07-20 06:52:33 51°13.636 2°56.019 -999 55 16.3 100790 48
2011-07-20 06:52:38 51°13.636 2°56.019 -999 24 16.4 100790 47
2011-07-20 06:52:43 51°13.636 2°56.019 -999 55 16.4 100790 47
2011-07-20 06:52:48 51°13.636 2°56.019 -999 25 16.3 100790 48
2011-07-20 06:52:53 51°13.636 2°56.019 -999 55 16.3 100790 48
2011-07-20 06:52:57 51°13.636 2°56.019 -999 25 16.3 100790 48
2011-07-20 06:53:02 51°13.637 2°56.019 -999 55 16.3 100790 48
2011-07-20 06:53:08 51°13.637 2°56.019 -999 25 16.3 100800 48
2011-07-20 06:53:12 51°13.637 2°56.019 -999 55 16.3 100800 48
2011-07-20 06:53:17 51°13.637 2°56.019 -999 25 16.3 100790 48
2011-07-20 06:53:23 51°13.636 2°56.019 -999 55 16.3 100790 48
2011-07-20 06:53:28 51°13.636 2°56.019 -999 25 16.3 100800 48
2011-07-20 06:53:33 51°13.637 2°56.019 -999 55 16.3 100800 48
2011-07-20 06:53:38 51°13.637 2°56.019 -999 25 16.3 100790 48
2011-07-20 06:53:43 51°13.637 2°56.019 -999 55 16.3 100790 48
2011-07-20 06:53:48 51°13.636 2°56.019 -999 25 16.3 100790 48
2011-07-20 06:53:53 51°13.636 2°56.019 -999 55 16.3 100790 48
2011-07-20 06:53:57 51°13.637 2°56.019 -999 25 16.3 100790 48
2011-07-20 06:54:03 51°13.636 2°56.019 -999 55 16.3 100790 48
2011-07-20 06:54:08 51°13.636 2°56.019 -999 25 16.3 100790 48
2011-07-20 06:54:13 51°13.636 2°56.019 -999 55 16.3 100790 48
2011-07-20 06:54:17 51°13.636 2°56.019 -999 25 16.3 100790 48
2011-07-20 06:54:22 51°13.636 2°56.019 -999 55 16.3 100790 48
2011-07-20 06:54:27 51°13.637 2°56.019 -999 25 16.3 100790 48
2011-07-20 06:54:33 51°13.636 2°56.019 0.1 50 16.3 100790 48
2011-07-20 06:54:37 51°13.637 2°56.018 0.1 22 16.3 100800 48
2011-07-20 06:54:43 51°13.636 2°56.019 0.1 55 16.3 100800 48
2011-07-20 06:54:48 51°13.636 2°56.019 -999 24 16.3 100800 48
2011-07-20 06:54:53 51°13.636 2°56.019 -999 55 16.3 100800 48
2011-07-20 06:54:58 51°13.636 2°56.019 -999 25 16.3 100790 48
2011-07-20 06:55:02 51°13.636 2°56.019 -999 55 16.3 100790 48
2011-07-20 06:55:08 51°13.636 2°56.019 1 24 16.4 100790 48
2011-07-20 06:55:13 51°13.636 2°56.019 0.1 56 16.4 100790 48
2011-07-20 06:55:18 51°13.636 2°56.019 0.1 25 16.4 100800 47
2011-07-20 06:55:22 51°13.636 2°56.019 -999 55 16.4 100800 47
2011-07-20 06:55:27 51°13.636 2°56.019 -999 25 16.4 100790 48
2011-07-20 06:55:32 51°13.636 2°56.019 -999 55 16.4 100790 48
2011-07-20 06:55:38 51°13.636 2°56.019 -999 25 16.4 100790 48
2011-07-20 06:55:43 51°13.636 2°56.019 -999 55 16.4 100790 48
2011-07-20 06:55:48 51°13.636 2°56.019 -999 25 16.5 100790 48
2011-07-20 06:55:53 51°13.636 2°56.019 -999 55 16.5 100790 48
2011-07-20 06:55:58 51°13.636 2°56.02 -999 25 16.5 100790 48
2011-07-20 06:56:03 51°13.636 2°56.02 -999 55 16.5 100790 48
2011-07-20 06:56:07 51°13.636 2°56.021 -999 25 16.5 100800 48
2011-07-20 06:56:13 51°13.636 2°56.021 -999 55 16.5 100800 48
2011-07-20 06:56:17 51°13.636 2°56.021 -999 25 16.5 100790 48
2011-07-20 06:56:23 51°13.636 2°56.021 -999 55 16.5 100790 48
2011-07-20 06:56:27 51°13.636 2°56.021 -999 25 16.5 100790 48
2011-07-20 06:56:32 51°13.636 2°56.021 -999 55 16.5 100790 48
2011-07-20 06:56:38 51°13.636 2°56.021 -999 25 16.5 100800 48
2011-07-20 06:56:43 51°13.637 2°56.022 -999 55 16.5 100800 48
2011-07-20 06:56:48 51°13.637 2°56.022 -999 25 16.6 100800 48
2011-07-20 06:56:52 51°13.637 2°56.022 -999 55 16.6 100800 48
2011-07-20 06:56:58 51°13.637 2°56.022 -999 25 16.5 100800 48
2011-07-20 06:57:03 51°13.637 2°56.022 0.1 51 16.5 100800 48
2011-07-20 06:57:08 51°13.637 2°56.022 0.1 23 16.5 100800 48
2011-07-20 06:57:12 51°13.637 2°56.022 0.1 55 16.5 100800 48
2011-07-20 06:57:18 51°13.636 2°56.022 -999 24 16.5 100790 48
2011-07-20 06:57:23 51°13.636 2°56.022 0.2 54 16.5 100790 48
2011-07-20 06:57:28 51°13.636 2°56.022 0.1 24 16.6 100800 48
2011-07-20 06:57:32 51°13.636 2°56.02 0.1 55 16.6 100800 48
2011-07-20 06:57:37 51°13.636 2°56.019 -999 24 16.6 100800 49
2011-07-20 06:57:43 51°13.636 2°56.019 -999 55 16.6 100800 49
2011-07-20 06:57:48 51°13.636 2°56.019 -999 24 16.6 100790 48
2011-07-20 06:57:52 51°13.636 2°56.019 -999 55 16.6 100790 48
2011-07-20 06:57:57 51°13.636 2°56.019 -999 24 16.5 100800 46
2011-07-20 06:58:03 51°13.636 2°56.019 -999 55 16.5 100800 46
2011-07-20 06:58:08 51°13.636 2°56.019 -999 24 16.5 100800 48
2011-07-20 06:58:12 51°13.636 2°56.019 -999 55 16.5 100800 48
2011-07-20 06:58:17 51°13.636 2°56.019 -999 30 16.5 100790 48
2011-07-20 06:58:23 51°13.636 2°56.019 0.3 58 16.5 100790 48
2011-07-20 06:58:28 51°13.636 2°56.019 0.1 26 16.5 100790 48
2011-07-20 06:58:32 51°13.636 2°56.019 0.1 55 16.5 100790 48
2011-07-20 06:58:38 51°13.636 2°56.019 -999 25 16.5 100790 48
2011-07-20 06:58:43 51°13.636 2°56.019 -999 55 16.5 100790 48
2011-07-20 06:58:48 51°13.636 2°56.019 -999 25 16.5 100800 48
2011-07-20 06:58:53 51°13.636 2°56.019 -999 55 16.5 100800 48
2011-07-20 06:58:57 51°13.636 2°56.019 -999 25 16.6 100790 48
2011-07-20 06:59:03 51°13.636 2°56.019 -999 55 16.6 100790 48
2011-07-20 06:59:08 51°13.636 2°56.019 -999 25 16.6 100790 48
2011-07-20 06:59:13 51°13.636 2°56.019 -999 55 16.6 100790 48
2011-07-20 06:59:17 51°13.636 2°56.019 -999 25 16.6 100790 48
2011-07-20 06:59:23 51°13.636 2°56.019 -999 55 16.6 100790 48
2011-07-20 06:59:28 51°13.636 2°56.019 0.5 19 16.6 100800 48
2011-07-20 06:59:33 51°13.636 2°56.019 0.1 55 16.6 100800 48
2011-07-20 06:59:37 51°13.636 2°56.019 0.1 24 16.6 100790 48
2011-07-20 06:59:43 51°13.635 2°56.019 -999 55 16.6 100790 48
2011-07-20 06:59:47 51°13.635 2°56.019 -999 28 16.6 100790 48
2011-07-20 06:59:53 51°13.635 2°56.018 -999 55 16.6 100790 48
2011-07-20 06:59:58 51°13.635 2°56.018 0.4 25 16.7 100790 48
2011-07-20 07:00:03 51°13.635 2°56.018 0.1 55 16.7 100790 48
2011-07-20 07:00:08 51°13.635 2°56.018 0.1 25 16.6 100790 48
2011-07-20 07:00:13 51°13.635 2°56.018 -999 55 16.6 100790 48
2011-07-20 07:00:18 51°13.635 2°56.018 -999 25 16.7 100800 48
2011-07-20 07:00:22 51°13.635 2°56.018 -999 55 16.7 100800 48
2011-07-20 07:00:27 51°13.635 2°56.017 0.1 19 16.7 100800 48
2011-07-20 07:00:32 51°13.635 2°56.015 2.2 50 16.7 100800 48
2011-07-20 07:00:38 51°13.636 2°56.011 2.1 27 16.7 100800 47
2011-07-20 07:00:42 51°13.637 2°56.008 1.5 50 16.7 100800 47
2011-07-20 07:00:48 51°13.639 2°56.002 1.3 26 16.7 100800 47
2011-07-20 07:00:54 51°13.641 2°55.995 1.2 55 16.7 100800 47
2011-07-20 07:01:00 51°13.643 2°55.987 1.9 19 16.7 100800 47
2011-07-20 07:01:06 51°13.646 2°55.978 2.8 53 16.7 100800 47
2011-07-20 07:01:11 51°13.648 2°55.97 3.1 26 16.7 100790 48
2011-07-20 07:01:16 51°13.651 2°55.962 1.9 53 16.7 100790 48
2011-07-20 07:01:21 51°13.653 2°55.953 0.3 24 16.6 100790 48
2011-07-20 07:01:26 51°13.656 2°55.943 0.1 55 16.6 100790 48
2011-07-20 07:01:31 51°13.659 2°55.934 0.1 24 16.6 100800 48
2011-07-20 07:01:35 51°13.661 2°55.926 -999 55 16.6 100800 48
2011-07-20 07:01:40 51°13.664 2°55.916 -999 24 16.6 100800 47
2011-07-20 07:01:46 51°13.667 2°55.905 -999 55 16.6 100800 47
2011-07-20 07:01:52 51°13.67 2°55.894 -999 24 16.6 100800 47
2011-07-20 07:01:56 51°13.672 2°55.887 -999 55 16.6 100800 47
2011-07-20 07:02:01 51°13.674 2°55.878 -999 25 16.7 100790 48
2011-07-20 07:02:06 51°13.676 2°55.87 -999 54 16.7 100790 48
2011-07-20 07:02:11 51°13.679 2°55.862 -999 24 16.7 100800 48
2011-07-20 07:02:16 51°13.682 2°55.853 -999 55 16.7 100800 48
2011-07-20 07:02:21 51°13.685 2°55.845 -999 24 16.7 100790 48
2011-07-20 07:02:26 51°13.688 2°55.837 -999 55 16.7 100790 48
2011-07-20 07:02:31 51°13.691 2°55.829 -999 24 16.8 100790 48
2011-07-20 07:02:36 51°13.694 2°55.821 -999 55 16.8 100790 48
2011-07-20 07:02:41 51°13.698 2°55.813 -999 24 16.8 100790 48
2011-07-20 07:02:46 51°13.701 2°55.805 -999 55 16.8 100790 48
2011-07-20 07:02:51 51°13.705 2°55.797 1.2 23 16.8 100800 48
2011-07-20 07:02:56 51°13.709 2°55.789 1.1 56 16.8 100800 48
2011-07-20 07:03:02 51°13.714 2°55.779 0.3 23 16.9 100790 48
2011-07-20 07:03:07 51°13.718 2°55.77 0.1 55 16.9 100790 48
2011-07-20 07:03:12 51°13.722 2°55.762 0.1 24 17 100790 49
2011-07-20 07:03:17 51°13.727 2°55.753 -999 55 17 100790 49
2011-07-20 07:03:21 51°13.731 2°55.747 -999 24 17 100800 47
2011-07-20 07:03:27 51°13.737 2°55.736 -999 55 17 100800 47
2011-07-20 07:03:31 51°13.74 2°55.73 -999 24 17 100790 48
2011-07-20 07:03:36 51°13.746 2°55.721 -999 55 17 100790 48
2011-07-20 07:03:41 51°13.751 2°55.713 -999 24 17.1 100800 48
2011-07-20 07:03:46 51°13.757 2°55.704 -999 55 17.1 100800 48
2011-07-20 07:03:51 51°13.762 2°55.696 -999 24 17.2 100800 48
2011-07-20 07:03:56 51°13.769 2°55.688 -999 55 17.2 100800 48
2011-07-20 07:04:01 51°13.775 2°55.68 -999 24 17.3 100800 48
2011-07-20 07:04:05 51°13.78 2°55.674 -999 55 17.3 100800 48
2011-07-20 07:04:11 51°13.788 2°55.665 -999 24 17.3 100800 48
2011-07-20 07:04:16 51°13.795 2°55.658 -999 55 17.3 100800 48
2011-07-20 07:04:21 51°13.802 2°55.65 -999 24 17.3 100790 47
2011-07-20 07:04:26 51°13.809 2°55.644 -999 55 17.3 100790 47
2011-07-20 07:04:31 51°13.816 2°55.638 -999 24 17.4 100790 48
2011-07-20 07:04:36 51°13.823 2°55.632 -999 55 17.4 100790 48
2011-07-20 07:04:41 51°13.831 2°55.627 -999 24 17.4 100800 48
2011-07-20 07:04:46 51°13.838 2°55.622 -999 55 17.4 100800 48
2011-07-20 07:04:51 51°13.845 2°55.618 -999 24 17.5 100800 48
2011-07-20 07:04:56 51°13.853 2°55.614 -999 55 17.5 100800 48
2011-07-20 07:05:01 51°13.86 2°55.61 -999 24 17.4 100790 46
2011-07-20 07:05:07 51°13.869 2°55.607 -999 55 17.4 100790 46
2011-07-20 07:05:11 51°13.875 2°55.605 -999 24 17.4 100800 46
2011-07-20 07:05:16 51°13.883 2°55.603 -999 55 17.4 100800 46
2011-07-20 07:05:21 51°13.89 2°55.601 -999 24 17.3 100800 46
2011-07-20 07:05:26 51°13.897 2°55.6 -999 43 17.3 100800 46
2011-07-20 07:05:31 51°13.904 2°55.599 -999 43 17.2 100790 46
2011-07-20 07:05:37 51°13.912 2°55.599 -999 43 17.2 100790 46
2011-07-20 07:05:41 51°13.917 2°55.598 -999 40 17.2 100800 46
2011-07-20 07:05:46 51°13.924 2°55.598 -999 38 17.2 100800 46
2011-07-20 07:05:51 51°13.93 2°55.599 -999 42 17.1 100790 45
2011-07-20 07:05:56 51°13.936 2°55.6 -999 55 17.1 100790 45
2011-07-20 07:06:01 51°13.942 2°55.602 -999 24 17.1 100800 44
2011-07-20 07:06:06 51°13.947 2°55.603 -999 55 17.1 100800 44
2011-07-20 07:06:11 51°13.952 2°55.605 -999 44 17.1 100790 46
2011-07-20 07:06:16 51°13.956 2°55.606 2.6 43 17.1 100790 46
2011-07-20 07:06:21 51°13.96 2°55.608 2.5 41 17 100800 46
2011-07-20 07:06:26 51°13.962 2°55.609 3.4 38 17 100800 46
2011-07-20 07:06:31 51°13.964 2°55.61 2.7 33 17 100800 46
2011-07-20 07:06:36 51°13.966 2°55.61 1.6 29 17 100800 46
2011-07-20 07:06:41 51°13.966 2°55.61 2.5 26 16.9 100800 47
2011-07-20 07:06:45 51°13.967 2°55.61 2.4 24 16.9 100800 47
2011-07-20 07:06:51 51°13.967 2°55.609 1.9 19 16.9 100800 46
2011-07-20 07:06:56 51°13.968 2°55.608 1.5 19 16.9 100800 46
2011-07-20 07:07:01 51°13.967 2°55.606 1.4 11 16.9 100800 47
2011-07-20 07:07:06 51°13.967 2°55.604 2 6 16.9 100800 47
2011-07-20 07:07:11 51°13.966 2°55.601 1.7 4 16.9 100800 46
2011-07-20 07:07:16 51°13.966 2°55.598 2.9 360 16.9 100800 46
2011-07-20 07:07:21 51°13.966 2°55.593 3.1 354 16.9 100800 47
2011-07-20 07:07:26 51°13.966 2°55.587 2.2 349 16.9 100800 47
2011-07-20 07:07:30 51°13.966 2°55.581 3.6 346 16.8 100800 47
2011-07-20 07:07:35 51°13.967 2°55.575 3.8 343 16.8 100800 47
2011-07-20 07:07:41 51°13.969 2°55.566 3.8 342 16.8 100800 47
2011-07-20 07:07:46 51°13.972 2°55.557 4.1 338 16.8 100800 47
2011-07-20 07:07:51 51°13.975 2°55.549 4.2 334 16.8 100800 45
2011-07-20 07:07:55 51°13.979 2°55.542 4.3 333 16.8 100800 45
2011-07-20 07:08:00 51°13.984 2°55.534 5 333 16.7 100800 47
2011-07-20 07:08:05 51°13.99 2°55.526 5.1 330 16.7 100800 47
2011-07-20 07:08:11 51°13.998 2°55.516 5.4 330 16.7 100800 47
2011-07-20 07:08:15 51°14.004 2°55.509 4.9 327 16.7 100800 47
2011-07-20 07:08:20 51°14.012 2°55.501 5.6 327 16.6 100800 47
2011-07-20 07:08:25 51°14.02 2°55.494 6.3 303 16.6 100800 47
2011-07-20 07:08:30 51°14.028 2°55.487 6.4 326 16.6 100800 47
2011-07-20 07:08:35 51°14.036 2°55.48 5.7 302 16.6 100800 47
2011-07-20 07:08:40 51°14.045 2°55.472 5.7 329 16.6 100800 46
2011-07-20 07:08:46 51°14.056 2°55.465 5.3 325 16.6 100800 46
2011-07-20 07:08:50 51°14.063 2°55.459 5.5 325 16.5 100790 46
2011-07-20 07:08:56 51°14.075 2°55.451 6.5 328 16.5 100790 46
2011-07-20 07:09:00 51°14.082 2°55.445 5.3 323 16.5 100800 46
2011-07-20 07:09:05 51°14.092 2°55.438 6.1 301 16.5 100800 46
2011-07-20 07:09:10 51°14.102 2°55.431 6.4 327 16.5 100790 46
2011-07-20 07:09:15 51°14.112 2°55.423 7.5 303 16.5 100790 46
2011-07-20 07:09:20 51°14.123 2°55.416 6.6 326 16.5 100790 46
2011-07-20 07:09:24 51°14.131 2°55.409 7.3 303 16.5 100790 46
2011-07-20 07:09:29 51°14.142 2°55.402 6.4 324 16.5 100790 48
2011-07-20 07:09:34 51°14.152 2°55.394 5.7 303 16.5 100790 48
2011-07-20 07:09:39 51°14.163 2°55.386 5.9 324 16.5 100800 47
2011-07-20 07:09:44 51°14.174 2°55.378 5.2 329 16.5 100800 47
2011-07-20 07:09:48 51°14.182 2°55.372 5.8 325 16.5 100790 46
2011-07-20 07:09:53 51°14.193 2°55.364 6.6 301 16.5 100790 46
2011-07-20 07:09:58 51°14.204 2°55.355 6.3 326 16.5 100800 46
2011-07-20 07:10:04 51°14.217 2°55.345 6.5 327 16.5 100800 46
2011-07-20 07:10:08 51°14.226 2°55.337 7.1 327 16.5 100790 46
2011-07-20 07:10:13 51°14.236 2°55.327 6.8 327 16.5 100790 46
2011-07-20 07:10:19 51°14.25 2°55.314 6.5 326 16.5 100790 48
2011-07-20 07:10:24 51°14.261 2°55.304 6.4 327 16.5 100790 48
2011-07-20 07:10:29 51°14.271 2°55.292 6.5 329 16.5 100790 48
2011-07-20 07:10:33 51°14.28 2°55.283 6.1 327 16.5 100790 48
2011-07-20 07:10:38 51°14.291 2°55.27 7.3 327 16.5 100790 48
2011-07-20 07:10:43 51°14.302 2°55.258 6.6 328 16.5 100790 48
2011-07-20 07:10:48 51°14.313 2°55.245 7.5 328 16.5 100800 46
2011-07-20 07:10:53 51°14.324 2°55.232 7.1 327 16.5 100800 46
2011-07-20 07:10:58 51°14.335 2°55.219 6.9 328 16.5 100800 48
2011-07-20 07:11:03 51°14.346 2°55.206 7.3 327 16.5 100800 48
2011-07-20 07:11:08 51°14.357 2°55.193 8.9 327 16.5 100790 48
2011-07-20 07:11:13 51°14.369 2°55.18 7.5 327 16.5 100790 48
2011-07-20 07:11:17 51°14.378 2°55.169 8.1 328 16.5 100790 47
2011-07-20 07:11:22 51°14.39 2°55.156 7.5 328 16.5 100790 47
2011-07-20 07:11:27 51°14.402 2°55.142 6.6 327 16.4 100800 47
2011-07-20 07:11:33 51°14.416 2°55.126 6.2 327 16.4 100800 47
2011-07-20 07:11:37 51°14.426 2°55.115 6.8 327 16.4 100790 48
2011-07-20 07:11:43 51°14.441 2°55.1 6.6 328 16.4 100790 48
2011-07-20 07:11:48 51°14.453 2°55.086 6.4 328 16.4 100790 48
2011-07-20 07:11:53 51°14.466 2°55.071 6.6 328 16.4 100790 48
2011-07-20 07:11:57 51°14.476 2°55.06 7.5 329 16.4 100790 48
2011-07-20 07:12:03 51°14.491 2°55.044 7.6 329 16.4 100790 48
2011-07-20 07:12:08 51°14.504 2°55.029 7.1 328 16.4 100800 48
2011-07-20 07:12:13 51°14.518 2°55.015 7.6 327 16.4 100800 48
2011-07-20 07:12:18 51°14.531 2°55 7 328 16.4 100790 47
2011-07-20 07:12:22 51°14.542 2°54.988 8.3 328 16.4 100790 47
2011-07-20 07:12:27 51°14.554 2°54.97 8.8 329 16.4 100800 48
2011-07-20 07:12:33 51°14.568 2°54.945 7.5 328 16.4 100800 48
2011-07-20 07:12:38 51°14.579 2°54.925 9 329 16.4 100800 46
2011-07-20 07:12:43 51°14.592 2°54.905 8.5 327 16.4 100800 46
2011-07-20 07:12:48 51°14.604 2°54.886 8.1 325 16.3 100800 48
2011-07-20 07:12:53 51°14.618 2°54.868 9.5 326 16.3 100800 48
2011-07-20 07:12:57 51°14.629 2°54.855 9.9 325 16.3 100790 48
2011-07-20 07:13:03 51°14.646 2°54.834 9.6 325 16.3 100790 48
2011-07-20 07:13:07 51°14.657 2°54.821 8.4 327 16.3 100790 47
2011-07-20 07:13:13 51°14.675 2°54.802 9.1 302 16.3 100790 47
2011-07-20 07:13:17 51°14.687 2°54.788 8.4 327 16.4 100790 47
2011-07-20 07:13:23 51°14.704 2°54.769 8.4 328 16.4 100790 47
2011-07-20 07:13:27 51°14.716 2°54.756 7.3 326 16.4 100780 47
2011-07-20 07:13:32 51°14.731 2°54.74 7.8 326 16.4 100780 47
2011-07-20 07:13:38 51°14.749 2°54.721 7.7 327 16.4 100800 47
2011-07-20 07:13:43 51°14.763 2°54.705 8.7 303 16.4 100800 47
2011-07-20 07:13:48 51°14.778 2°54.688 8.4 327 16.4 100800 48
2011-07-20 07:13:53 51°14.793 2°54.671 7.8 329 16.4 100800 48
2011-07-20 07:13:58 51°14.807 2°54.653 7.6 328 16.4 100800 46
2011-07-20 07:14:03 51°14.821 2°54.635 8 329 16.4 100800 46
2011-07-20 07:14:08 51°14.835 2°54.617 8.7 328 16.4 100800 47
2011-07-20 07:14:12 51°14.847 2°54.603 8.8 330 16.4 100800 47
2011-07-20 07:14:18 51°14.864 2°54.583 7.8 328 16.4 100800 47
2011-07-20 07:14:23 51°14.879 2°54.566 9.7 329 16.4 100800 47
2011-07-20 07:14:28 51°14.894 2°54.551 8.3 328 16.4 100810 48
2011-07-20 07:14:33 51°14.909 2°54.536 10.6 330 16.4 100810 48
2011-07-20 07:14:37 51°14.922 2°54.524 9.3 328 16.4 100800 48
2011-07-20 07:14:42 51°14.937 2°54.51 10 328 16.4 100800 48
2011-07-20 07:14:47 51°14.953 2°54.497 8.2 328 16.4 100800 47
2011-07-20 07:14:53 51°14.972 2°54.48 9.9 328 16.4 100800 47
2011-07-20 07:14:57 51°14.984 2°54.469 7.5 329 16.3 100800 47
2011-07-20 07:15:02 51°15 2°54.456 7.8 329 16.3 100800 47
2011-07-20 07:15:08 51°15.018 2°54.437 9.8 329 16.3 100800 48
2011-07-20 07:15:13 51°15.032 2°54.421 9.8 329 16.3 100800 48
2011-07-20 07:15:18 51°15.047 2°54.404 9.4 330 16.3 100790 48
2011-07-20 07:15:22 51°15.058 2°54.391 9 301 16.3 100790 48
2011-07-20 07:15:28 51°15.075 2°54.37 7.7 330 16.3 100800 48
2011-07-20 07:15:33 51°15.089 2°54.352 9.8 329 16.3 100800 48
2011-07-20 07:15:38 51°15.102 2°54.334 8.8 329 16.3 100800 48
2011-07-20 07:15:43 51°15.116 2°54.316 8.7 328 16.3 100800 48
2011-07-20 07:15:47 51°15.126 2°54.301 8.8 329 16.3 100800 48
2011-07-20 07:15:53 51°15.143 2°54.279 9.4 328 16.3 100800 48
2011-07-20 07:15:58 51°15.156 2°54.261 7.5 328 16.3 100800 47
2011-07-20 07:16:03 51°15.17 2°54.243 7.1 329 16.3 100800 47
2011-07-20 07:16:07 51°15.181 2°54.229 8.3 326 16.3 100800 47
2011-07-20 07:16:12 51°15.195 2°54.212 6.9 301 16.3 100800 47
2011-07-20 07:16:18 51°15.212 2°54.191 6.8 327 16.3 100790 46
2011-07-20 07:16:23 51°15.226 2°54.174 7.9 327 16.3 100790 46
2011-07-20 07:16:27 51°15.237 2°54.16 9.8 327 16.2 100800 48
2011-07-20 07:16:32 51°15.251 2°54.143 9.6 327 16.2 100800 48
2011-07-20 07:16:38 51°15.268 2°54.123 8.9 329 16.3 100790 46
2011-07-20 07:16:43 51°15.282 2°54.105 8.5 329 16.3 100790 46
2011-07-20 07:16:48 51°15.296 2°54.088 7.5 328 16.3 100800 46
2011-07-20 07:16:52 51°15.307 2°54.074 8.4 330 16.3 100800 46
2011-07-20 07:16:57 51°15.32 2°54.056 8 329 16.3 100800 47
2011-07-20 07:17:02 51°15.333 2°54.037 7.3 328 16.3 100800 47
2011-07-20 07:17:07 51°15.347 2°54.019 7.1 328 16.3 100800 48
2011-07-20 07:17:12 51°15.36 2°54.001 7.4 327 16.3 100800 48
2011-07-20 07:17:18 51°15.377 2°53.98 9.5 328 16.3 100800 48
2011-07-20 07:17:23 51°15.391 2°53.962 7.3 327 16.3 100800 48
2011-07-20 07:17:28 51°15.404 2°53.944 9.3 329 16.3 100800 48
2011-07-20 07:17:33 51°15.418 2°53.926 7.6 329 16.3 100800 48
2011-07-20 07:17:37 51°15.429 2°53.911 9.4 326 16.3 100800 48
2011-07-20 07:17:43 51°15.445 2°53.89 9.5 327 16.3 100800 48
2011-07-20 07:17:48 51°15.458 2°53.872 9.8 328 16.3 100800 47
2011-07-20 07:17:53 51°15.472 2°53.854 9.9 328 16.3 100800 47
2011-07-20 07:17:57 51°15.483 2°53.84 9.6 328 16.3 100800 47
2011-07-20 07:18:02 51°15.497 2°53.822 9.4 327 16.3 100800 47
2011-07-20 07:18:07 51°15.511 2°53.805 8.4 327 16.3 100800 47
2011-07-20 07:18:14 51°15.531 2°53.783 7.7 327 16.3 100800 47
2011-07-20 07:18:18 51°15.543 2°53.771 9 327 16.3 100800 47
2011-07-20 07:18:23 51°15.558 2°53.756 10.2 327 16.3 100800 47
2011-07-20 07:18:28 51°15.573 2°53.741 10.2 326 16.3 100800 47
2011-07-20 07:18:33 51°15.588 2°53.727 8.3 303 16.3 100800 47
2011-07-20 07:18:38 51°15.603 2°53.713 9 326 16.3 100800 47
2011-07-20 07:18:42 51°15.615 2°53.701 7.3 325 16.3 100800 47
2011-07-20 07:18:48 51°15.633 2°53.684 7.4 327 16.3 100800 48
2011-07-20 07:18:53 51°15.648 2°53.669 6.6 327 16.3 100800 48
2011-07-20 07:18:58 51°15.663 2°53.654 8 328 16.3 100800 47
2011-07-20 07:19:03 51°15.678 2°53.639 8.5 328 16.3 100800 47
2011-07-20 07:19:08 51°15.693 2°53.624 7 329 16.3 100800 48
2011-07-20 07:19:13 51°15.707 2°53.608 9.3 329 16.3 100800 48
2011-07-20 07:19:18 51°15.722 2°53.591 8.5 329 16.2 100790 46
2011-07-20 07:19:22 51°15.733 2°53.578 8.3 328 16.2 100790 46
2011-07-20 07:19:27 51°15.747 2°53.562 8.5 328 16.2 100800 47
2011-07-20 07:19:33 51°15.764 2°53.542 8.1 328 16.2 100800 47
2011-07-20 07:19:38 51°15.779 2°53.527 9 327 16.2 100800 48
2011-07-20 07:19:43 51°15.794 2°53.511 7.5 327 16.2 100800 48
2011-07-20 07:19:47 51°15.806 2°53.5 7.7 328 16.2 100800 48
2011-07-20 07:19:53 51°15.825 2°53.484 9.1 328 16.2 100800 48
2011-07-20 07:19:58 51°15.84 2°53.471 9.2 326 16.2 100790 48
2011-07-20 07:20:03 51°15.856 2°53.46 8.1 301 16.2 100790 48
2011-07-20 07:20:07 51°15.868 2°53.451 8 326 16.2 100800 46
2011-07-20 07:20:12 51°15.885 2°53.441 9.6 326 16.2 100800 46
2011-07-20 07:20:18 51°15.904 2°53.428 8.5 326 16.2 100800 47
2011-07-20 07:20:23 51°15.921 2°53.419 8.2 327 16.2 100800 47
2011-07-20 07:20:27 51°15.934 2°53.412 7.6 326 16.2 100790 48
2011-07-20 07:20:32 51°15.95 2°53.402 7.8 326 16.2 100790 48
2011-07-20 07:20:38 51°15.97 2°53.391 8.2 326 16.2 100790 47
2011-07-20 07:20:43 51°15.986 2°53.381 7.7 301 16.2 100790 47
2011-07-20 07:20:47 51°15.999 2°53.373 7.1 326 16.2 100800 48
2011-07-20 07:20:53 51°16.019 2°53.362 7.1 302 16.2 100800 48
2011-07-20 07:20:58 51°16.036 2°53.353 7.3 327 16.2 100800 47
2011-07-20 07:21:03 51°16.052 2°53.344 8 303 16.2 100800 47
2011-07-20 07:21:08 51°16.068 2°53.335 8.3 327 16.2 100790 48
2011-07-20 07:21:13 51°16.085 2°53.326 7.6 302 16.2 100790 48
2011-07-20 07:21:18 51°16.102 2°53.317 8.4 327 16.2 100800 47
2011-07-20 07:21:23 51°16.118 2°53.308 7 327 16.2 100800 47
2011-07-20 07:21:28 51°16.135 2°53.3 7.4 325 16.2 100790 48
2011-07-20 07:21:33 51°16.152 2°53.293 7.8 326 16.2 100790 48
2011-07-20 07:21:37 51°16.166 2°53.288 8.1 327 16.2 100800 47
2011-07-20 07:21:41 51°16.179 2°53.283 8.8 304 16.2 100800 47
2011-07-20 07:21:48 51°16.203 2°53.274 7.5 326 16.2 100800 48
2011-07-20 07:21:53 51°16.22 2°53.268 7.4 305 16.2 100800 48
2011-07-20 07:21:57 51°16.233 2°53.263 9.1 326 16.2 100800 47
2011-07-20 07:22:01 51°16.247 2°53.259 8.3 303 16.2 100800 47
2011-07-20 07:22:07 51°16.267 2°53.251 8.1 327 16.2 100790 48
2011-07-20 07:22:13 51°16.288 2°53.244 8.3 303 16.2 100790 48
2011-07-20 07:22:17 51°16.302 2°53.239 6.9 326 16.2 100790 48
2011-07-20 07:22:23 51°16.322 2°53.232 6.4 302 16.2 100790 48
2011-07-20 07:22:27 51°16.336 2°53.227 7.5 326 16.3 100800 47
2011-07-20 07:22:33 51°16.356 2°53.22 8.2 325 16.3 100800 47
2011-07-20 07:22:37 51°16.37 2°53.214 7.6 326 16.2 100800 48
2011-07-20 07:22:43 51°16.39 2°53.206 6.8 325 16.2 100800 48
2011-07-20 07:22:47 51°16.403 2°53.201 7.8 325 16.3 100800 47
2011-07-20 07:22:52 51°16.42 2°53.194 8.8 303 16.3 100800 47
2011-07-20 07:22:57 51°16.437 2°53.188 8.6 325 16.3 100800 48
2011-07-20 07:23:03 51°16.457 2°53.179 6.6 324 16.3 100800 48
2011-07-20 07:23:08 51°16.474 2°53.171 6.6 325 16.2 100800 48
2011-07-20 07:23:13 51°16.491 2°53.163 7.4 326 16.2 100800 48
2011-07-20 07:23:18 51°16.507 2°53.154 7.7 325 16.2 100800 48
2011-07-20 07:23:22 51°16.521 2°53.148 8.3 326 16.2 100800 48
2011-07-20 07:23:27 51°16.537 2°53.14 8.7 325 16.2 100800 46
2011-07-20 07:23:32 51°16.554 2°53.133 7.6 326 16.2 100800 46
2011-07-20 07:23:38 51°16.574 2°53.125 8.1 326 16.2 100800 47
2011-07-20 07:23:43 51°16.592 2°53.119 8 325 16.2 100800 47
2011-07-20 07:23:47 51°16.605 2°53.115 9 326 16.2 100800 48
2011-07-20 07:23:53 51°16.626 2°53.11 7.7 303 16.2 100800 48
2011-07-20 07:23:58 51°16.643 2°53.106 6.7 325 16.2 100800 48
2011-07-20 07:24:03 51°16.66 2°53.102 7.4 325 16.2 100800 48
2011-07-20 07:24:07 51°16.674 2°53.099 7.4 326 16.2 100800 48
2011-07-20 07:24:12 51°16.691 2°53.095 8.4 327 16.2 100800 48
2011-07-20 07:24:17 51°16.708 2°53.091 8.6 327 16.2 100800 48
2011-07-20 07:24:23 51°16.729 2°53.086 8.6 327 16.2 100800 48
2011-07-20 07:24:27 51°16.743 2°53.083 8.3 327 16.2 100800 47
2011-07-20 07:24:32 51°16.759 2°53.079 7.3 327 16.2 100800 47
2011-07-20 07:24:37 51°16.776 2°53.075 8.9 327 16.2 100800 46
2011-07-20 07:24:43 51°16.797 2°53.069 7.3 327 16.2 100800 46
2011-07-20 07:24:47 51°16.811 2°53.065 7.8 328 16.2 100800 47
2011-07-20 07:24:51 51°16.824 2°53.061 9 327 16.2 100800 47
2011-07-20 07:24:57 51°16.844 2°53.056 8.1 326 16.2 100800 47
2011-07-20 07:25:02 51°16.861 2°53.051 7.6 327 16.2 100800 47
2011-07-20 07:25:07 51°16.878 2°53.046 7.8 326 16.2 100800 48
2011-07-20 07:25:11 51°16.891 2°53.042 9 326 16.2 100800 48
2011-07-20 07:25:17 51°16.911 2°53.036 7 327 16.2 100800 48
2011-07-20 07:25:23 51°16.931 2°53.031 8.4 325 16.2 100800 48
2011-07-20 07:25:27 51°16.945 2°53.027 8 325 16.2 100800 48
2011-07-20 07:25:31 51°16.958 2°53.024 8.2 303 16.2 100800 48
2011-07-20 07:25:37 51°16.979 2°53.021 8.2 325 16.2 100800 47
2011-07-20 07:25:43 51°16.999 2°53.018 7 304 16.2 100800 47
2011-07-20 07:25:47 51°17.013 2°53.017 8.3 323 16.2 100800 48
2011-07-20 07:25:51 51°17.027 2°53.016 7.1 302 16.2 100800 48
2011-07-20 07:25:57 51°17.047 2°53.017 8.8 324 16.2 100800 47
2011-07-20 07:26:02 51°17.064 2°53.018 7.2 322 16.2 100800 47
2011-07-20 07:26:07 51°17.082 2°53.019 8 324 16.2 100800 48
2011-07-20 07:26:11 51°17.095 2°53.022 8.6 304 16.2 100800 48
2011-07-20 07:26:17 51°17.116 2°53.025 6.9 322 16.2 100800 47
2011-07-20 07:26:22 51°17.133 2°53.03 7.3 307 16.2 100800 47
2011-07-20 07:26:27 51°17.15 2°53.034 7.7 323 16.2 100800 48
2011-07-20 07:26:32 51°17.167 2°53.038 8.3 303 16.2 100800 48
2011-07-20 07:26:37 51°17.184 2°53.043 7.1 323 16.2 100800 48
2011-07-20 07:26:42 51°17.2 2°53.049 7.2 306 16.2 100800 48
2011-07-20 07:26:47 51°17.217 2°53.055 7.1 322 16.2 100800 47
2011-07-20 07:26:52 51°17.234 2°53.061 6.5 301 16.2 100800 47
2011-07-20 07:26:57 51°17.25 2°53.067 7.1 321 16.2 100810 48
2011-07-20 07:27:02 51°17.267 2°53.073 7 303 16.2 100810 48
2011-07-20 07:27:07 51°17.283 2°53.079 5.8 322 16.2 100800 48
2011-07-20 07:27:11 51°17.297 2°53.085 8 302 16.2 100800 48
2011-07-20 07:27:17 51°17.317 2°53.094 6.7 322 16.2 100800 47
2011-07-20 07:27:22 51°17.333 2°53.102 6.6 305 16.2 100800 47
2011-07-20 07:27:27 51°17.349 2°53.11 7 321 16.2 100800 47
2011-07-20 07:27:31 51°17.362 2°53.117 6.7 301 16.2 100800 47
2011-07-20 07:27:37 51°17.381 2°53.128 6.8 320 16.2 100800 46
2011-07-20 07:27:43 51°17.4 2°53.139 6.7 303 16.2 100800 46
2011-07-20 07:27:47 51°17.413 2°53.146 7.1 321 16.2 100800 46
2011-07-20 07:27:51 51°17.426 2°53.154 6.4 308 16.2 100800 46
2011-07-20 07:27:57 51°17.445 2°53.166 7.2 323 16.2 100800 48
2011-07-20 07:28:03 51°17.464 2°53.179 6.2 308 16.2 100800 48
2011-07-20 07:28:07 51°17.476 2°53.187 7.2 322 16.2 100800 47
2011-07-20 07:28:11 51°17.488 2°53.197 6.9 303 16.2 100800 47
2011-07-20 07:28:17 51°17.507 2°53.209 7.5 321 16.2 100800 48
2011-07-20 07:28:23 51°17.526 2°53.223 7.3 309 16.2 100800 48
2011-07-20 07:28:28 51°17.541 2°53.234 7.8 321 16.2 100800 48
2011-07-20 07:28:33 51°17.556 2°53.245 7.4 306 16.2 100800 48
2011-07-20 07:28:38 51°17.572 2°53.256 6.1 320 16.2 100800 48
2011-07-20 07:28:43 51°17.588 2°53.266 7.5 307 16.2 100800 48
2011-07-20 07:28:48 51°17.603 2°53.277 7.3 321 16.2 100800 47
2011-07-20 07:28:53 51°17.618 2°53.288 6.5 303 16.2 100800 47
2011-07-20 07:28:58 51°17.634 2°53.299 6.8 322 16.2 100800 47
2011-07-20 07:29:03 51°17.649 2°53.311 6.5 304 16.2 100800 47
2011-07-20 07:29:08 51°17.664 2°53.323 7.3 319 16.2 100800 47
2011-07-20 07:29:12 51°17.676 2°53.332 6.2 309 16.2 100800 47
2011-07-20 07:29:18 51°17.693 2°53.349 6.3 319 16.2 100800 48
2011-07-20 07:29:23 51°17.707 2°53.364 7.1 307 16.2 100800 48
2011-07-20 07:29:28 51°17.721 2°53.38 6.5 319 16.2 100810 47
2011-07-20 07:29:32 51°17.731 2°53.394 6.4 303 16.2 100810 47
2011-07-20 07:29:38 51°17.747 2°53.414 6.6 318 16.2 100810 47
2011-07-20 07:29:43 51°17.759 2°53.432 5.9 278 16.2 100810 47
2011-07-20 07:29:48 51°17.771 2°53.451 6.5 321 16.3 100800 48
2011-07-20 07:29:52 51°17.781 2°53.466 6.8 303 16.3 100800 48
2011-07-20 07:29:58 51°17.795 2°53.489 6.4 322 16.3 100800 47
2011-07-20 07:30:03 51°17.806 2°53.508 6 303 16.3 100800 47
2011-07-20 07:30:08 51°17.818 2°53.527 6.4 319 16.3 100800 47
2011-07-20 07:30:12 51°17.828 2°53.542 6 309 16.3 100800 47
2011-07-20 07:30:17 51°17.84 2°53.56 7 319 16.3 100800 47
2011-07-20 07:30:23 51°17.853 2°53.584 5.4 305 16.3 100800 47
2011-07-20 07:30:28 51°17.865 2°53.604 6.3 320 16.3 100800 48
2011-07-20 07:30:32 51°17.873 2°53.62 6.1 303 16.3 100800 48
2011-07-20 07:30:37 51°17.883 2°53.642 6.3 322 16.3 100800 47
2011-07-20 07:30:42 51°17.893 2°53.663 6.6 308 16.3 100800 47
2011-07-20 07:30:48 51°17.904 2°53.689 5.5 321 16.3 100810 46
2011-07-20 07:30:52 51°17.912 2°53.707 6 307 16.3 100810 46
2011-07-20 07:30:57 51°17.921 2°53.729 6.2 320 16.3 100800 47
2011-07-20 07:31:02 51°17.931 2°53.751 5.3 308 16.3 100800 47
2011-07-20 07:31:07 51°17.94 2°53.773 5.7 321 16.3 100810 46
2011-07-20 07:31:12 51°17.949 2°53.796 5.1 308 16.3 100810 46
2011-07-20 07:31:17 51°17.958 2°53.818 5.4 321 16.3 100800 46
2011-07-20 07:31:23 51°17.969 2°53.843 5.6 307 16.3 100800 46
2011-07-20 07:31:27 51°17.977 2°53.861 5.7 320 16.3 100810 46
2011-07-20 07:31:32 51°17.988 2°53.882 5.4 306 16.3 100810 46
2011-07-20 07:31:37 51°17.998 2°53.902 5.2 319 16.3 100800 46
2011-07-20 07:31:43 51°18.011 2°53.927 5.2 279 16.3 100800 46
2011-07-20 07:31:47 51°18.019 2°53.943 6.7 318 16.3 100810 48
2011-07-20 07:31:52 51°18.03 2°53.963 6.5 308 16.3 100810 48
2011-07-20 07:31:57 51°18.041 2°53.983 6 319 16.3 100810 48
2011-07-20 07:32:03 51°18.054 2°54.007 5.8 305 16.3 100810 48
2011-07-20 07:32:07 51°18.063 2°54.024 6.1 319 16.3 100800 47
2011-07-20 07:32:12 51°18.073 2°54.044 5.8 308 16.3 100800 47
2011-07-20 07:32:17 51°18.084 2°54.065 6.7 318 16.3 100800 46
2011-07-20 07:32:23 51°18.096 2°54.089 6.2 300 16.3 100800 46
2011-07-20 07:32:27 51°18.105 2°54.106 6.2 319 16.4 100800 48
2011-07-20 07:32:32 51°18.115 2°54.127 7.2 303 16.4 100800 48
2011-07-20 07:32:37 51°18.124 2°54.149 5.9 318 16.4 100800 47
2011-07-20 07:32:43 51°18.135 2°54.176 5.4 307 16.4 100800 47
2011-07-20 07:32:47 51°18.142 2°54.193 5.8 317 16.4 100800 48
2011-07-20 07:32:52 51°18.151 2°54.216 5.3 302 16.4 100800 48
2011-07-20 07:32:56 51°18.158 2°54.233 6.2 320 16.4 100810 46
2011-07-20 07:33:02 51°18.169 2°54.26 5.8 302 16.4 100810 46
2011-07-20 07:33:07 51°18.178 2°54.282 4.8 320 16.4 100800 47
2011-07-20 07:33:12 51°18.187 2°54.304 6.1 305 16.4 100800 47
2011-07-20 07:33:16 51°18.195 2°54.322 5.7 318 16.4 100800 48
2011-07-20 07:33:22 51°18.206 2°54.348 6.6 308 16.4 100800 48
2011-07-20 07:33:27 51°18.216 2°54.37 6.2 317 16.3 100800 48
2011-07-20 07:33:32 51°18.225 2°54.392 5.6 308 16.3 100800 48
2011-07-20 07:33:36 51°18.233 2°54.408 6.2 317 16.3 100800 47
2011-07-20 07:33:42 51°18.246 2°54.434 4.9 280 16.3 100800 47
2011-07-20 07:33:47 51°18.257 2°54.454 5.5 319 16.3 100810 48
2011-07-20 07:33:52 51°18.268 2°54.474 6.1 301 16.3 100810 48
2011-07-20 07:33:57 51°18.278 2°54.495 6.4 317 16.3 100800 48
2011-07-20 07:34:02 51°18.289 2°54.515 5.7 305 16.3 100800 48
2011-07-20 07:34:07 51°18.3 2°54.534 5.4 317 16.3 100800 46
2011-07-20 07:34:12 51°18.311 2°54.555 5.2 307 16.3 100800 46
2011-07-20 07:34:17 51°18.322 2°54.575 4.6 317 16.3 100800 46
2011-07-20 07:34:23 51°18.334 2°54.599 5.4 303 16.3 100800 46
2011-07-20 07:34:27 51°18.343 2°54.615 5 316 16.3 100800 46
2011-07-20 07:34:32 51°18.354 2°54.636 6.5 303 16.3 100800 46
2011-07-20 07:34:37 51°18.364 2°54.656 5.7 316 16.3 100800 47
2011-07-20 07:34:43 51°18.377 2°54.681 5.5 308 16.3 100800 47
2011-07-20 07:34:47 51°18.385 2°54.697 5.3 315 16.3 100800 48
2011-07-20 07:34:52 51°18.395 2°54.719 5.3 306 16.3 100800 48
2011-07-20 07:34:57 51°18.404 2°54.741 5.5 317 16.3 100800 48
2011-07-20 07:35:02 51°18.414 2°54.762 5.9 302 16.3 100800 48
2011-07-20 07:35:07 51°18.423 2°54.784 5 316 16.3 100800 47
2011-07-20 07:35:12 51°18.432 2°54.806 5.3 306 16.3 100800 47
2011-07-20 07:35:17 51°18.441 2°54.828 5.2 316 16.3 100800 46
2011-07-20 07:35:22 51°18.45 2°54.85 5.9 301 16.3 100800 46
2011-07-20 07:35:27 51°18.46 2°54.872 5.2 316 16.3 100800 46
2011-07-20 07:35:32 51°18.469 2°54.894 5.3 307 16.3 100800 46
2011-07-20 07:35:36 51°18.477 2°54.911 5.8 316 16.3 100810 46
2011-07-20 07:35:42 51°18.488 2°54.937 5.3 285 16.3 100810 46
2011-07-20 07:35:47 51°18.497 2°54.959 5.8 318 16.3 100800 48
2011-07-20 07:35:52 51°18.507 2°54.981 5.5 308 16.3 100800 48
2011-07-20 07:35:56 51°18.515 2°54.998 5.4 317 16.3 100810 46
2011-07-20 07:36:02 51°18.526 2°55.025 5.3 306 16.3 100810 46
2011-07-20 07:36:08 51°18.537 2°55.05 5.3 316 16.3 100810 48
2011-07-20 07:36:12 51°18.544 2°55.068 5.2 303 16.3 100810 48
2011-07-20 07:36:17 51°18.554 2°55.089 5.4 317 16.3 100800 48
2011-07-20 07:36:23 51°18.566 2°55.115 5 304 16.3 100800 48
2011-07-20 07:36:28 51°18.576 2°55.137 5.6 317 16.3 100810 46
2011-07-20 07:36:32 51°18.584 2°55.153 6.5 305 16.3 100810 46
2011-07-20 07:36:37 51°18.594 2°55.174 5.2 316 16.3 100810 48
2011-07-20 07:36:42 51°18.606 2°55.194 5.5 304 16.3 100810 48
2011-07-20 07:36:47 51°18.617 2°55.214 5.1 319 16.3 100800 46
2011-07-20 07:36:52 51°18.627 2°55.233 7.1 304 16.3 100800 46
2011-07-20 07:36:57 51°18.638 2°55.253 5.7 23 16.3 100810 46
2011-07-20 07:37:03 51°18.649 2°55.279 5.5 305 16.3 100810 46
2011-07-20 07:37:07 51°18.657 2°55.296 5 27 16.3 100800 48
2011-07-20 07:37:12 51°18.665 2°55.318 5.2 308 16.3 100800 48
2011-07-20 07:37:17 51°18.674 2°55.341 5.6 21 16.3 100800 48
2011-07-20 07:37:22 51°18.682 2°55.365 5 308 16.3 100800 48
2011-07-20 07:37:27 51°18.689 2°55.388 5.4 24 16.2 100800 48
2011-07-20 07:37:32 51°18.696 2°55.412 4.9 302 16.2 100800 48
2011-07-20 07:37:37 51°18.702 2°55.436 4.5 316 16.2 100800 48
2011-07-20 07:37:42 51°18.709 2°55.461 4 278 16.2 100800 48
2011-07-20 07:37:47 51°18.715 2°55.485 4.1 316 16.3 100800 48
2011-07-20 07:37:52 51°18.721 2°55.509 4.9 307 16.3 100800 48
2011-07-20 07:37:57 51°18.728 2°55.533 4.3 317 16.2 100800 45
2011-07-20 07:38:02 51°18.735 2°55.557 5.2 301 16.2 100800 45
2011-07-20 07:38:07 51°18.741 2°55.581 4.9 317 16.3 100810 48
2011-07-20 07:38:12 51°18.748 2°55.605 5.6 309 16.3 100810 48
2011-07-20 07:38:16 51°18.754 2°55.624 4.8 316 16.2 100810 46
2011-07-20 07:38:22 51°18.762 2°55.653 5 307 16.2 100810 46
2011-07-20 07:38:27 51°18.768 2°55.677 4.9 21 16.2 100800 48
2011-07-20 07:38:32 51°18.775 2°55.701 4.2 304 16.2 100800 48
2011-07-20 07:38:36 51°18.78 2°55.721 4.8 318 16.2 100800 48
2011-07-20 07:38:42 51°18.788 2°55.749 5.1 302 16.2 100800 48
2011-07-20 07:38:48 51°18.796 2°55.778 5.1 316 16.3 100800 48
2011-07-20 07:38:52 51°18.802 2°55.797 5.8 309 16.3 100800 48
2011-07-20 07:38:57 51°18.81 2°55.819 5 315 16.2 100810 48
2011-07-20 07:39:02 51°18.817 2°55.842 5.4 309 16.2 100810 48
2011-07-20 07:39:08 51°18.827 2°55.87 4.8 316 16.2 100800 48
2011-07-20 07:39:12 51°18.834 2°55.888 5.8 303 16.2 100800 48
2011-07-20 07:39:17 51°18.842 2°55.91 4.9 317 16.2 100800 48
2011-07-20 07:39:22 51°18.85 2°55.933 5.4 302 16.2 100800 48
2011-07-20 07:39:28 51°18.859 2°55.961 6.1 317 16.2 100800 47
2011-07-20 07:39:32 51°18.865 2°55.979 5.4 305 16.2 100800 47
2011-07-20 07:39:37 51°18.873 2°56.002 5.8 316 16.2 100810 47
2011-07-20 07:39:42 51°18.881 2°56.026 5.6 281 16.2 100810 47
2011-07-20 07:39:48 51°18.889 2°56.055 5.1 316 16.2 100800 48
2011-07-20 07:39:52 51°18.894 2°56.074 5 309 16.2 100800 48
2011-07-20 07:39:57 51°18.901 2°56.098 5.7 26 16.2 100800 47
2011-07-20 07:40:02 51°18.907 2°56.121 5.3 302 16.2 100800 47
2011-07-20 07:40:07 51°18.913 2°56.145 4.5 316 16.2 100810 48
2011-07-20 07:40:12 51°18.92 2°56.17 4.7 309 16.2 100810 48
2011-07-20 07:40:17 51°18.927 2°56.194 5 316 16.2 100810 48
2011-07-20 07:40:22 51°18.933 2°56.218 5.1 307 16.2 100810 48
2011-07-20 07:40:27 51°18.94 2°56.241 4.7 317 16.2 100810 48
2011-07-20 07:40:32 51°18.947 2°56.265 4.9 306 16.2 100810 48
2011-07-20 07:40:37 51°18.954 2°56.288 4.7 316 16.2 100810 46
2011-07-20 07:40:42 51°18.962 2°56.311 4.2 301 16.2 100810 46
2011-07-20 07:40:47 51°18.97 2°56.334 5.3 317 16.2 100800 48
2011-07-20 07:40:52 51°18.978 2°56.357 5.2 302 16.2 100800 48
2011-07-20 07:40:56 51°18.984 2°56.376 4.9 317 16.2 100810 48
2011-07-20 07:41:02 51°18.994 2°56.403 4 303 16.2 100810 48
2011-07-20 07:41:07 51°19.002 2°56.426 4.9 318 16.2 100800 46
2011-07-20 07:41:12 51°19.01 2°56.448 4.3 302 16.2 100800 46
2011-07-20 07:41:16 51°19.017 2°56.467 4.4 319 16.2 100810 48
2011-07-20 07:41:22 51°19.026 2°56.494 4.2 304 16.2 100810 48
2011-07-20 07:41:28 51°19.035 2°56.522 0.9 320 16.2 100810 47
2011-07-20 07:41:32 51°19.041 2°56.54 4.4 303 16.2 100810 47
2011-07-20 07:41:36 51°19.047 2°56.559 4.9 318 16.2 100810 46
2011-07-20 07:41:42 51°19.055 2°56.587 4.9 284 16.2 100810 46
2011-07-20 07:41:48 51°19.063 2°56.616 5.3 316 16.2 100800 46
2011-07-20 07:41:52 51°19.068 2°56.635 4.5 301 16.2 100800 46
2011-07-20 07:41:57 51°19.074 2°56.66 4.6 321 16.2 100810 48
2011-07-20 07:42:02 51°19.08 2°56.683 5.2 307 16.2 100810 48
2011-07-20 07:42:08 51°19.088 2°56.712 5 320 16.2 100810 48
2011-07-20 07:42:12 51°19.094 2°56.731 5 302 16.2 100810 48
2011-07-20 07:42:17 51°19.101 2°56.754 4.6 320 16.2 100800 46
2011-07-20 07:42:22 51°19.108 2°56.777 4.6 305 16.2 100800 46
2011-07-20 07:42:27 51°19.116 2°56.8 4.9 319 16.2 100810 47
2011-07-20 07:42:32 51°19.123 2°56.823 5.1 303 16.2 100810 47
2011-07-20 07:42:37 51°19.131 2°56.847 5.6 320 16.2 100810 48
2011-07-20 07:42:42 51°19.138 2°56.87 5.3 308 16.2 100810 48
2011-07-20 07:42:47 51°19.145 2°56.894 5.1 319 16.2 100810 47
2011-07-20 07:42:52 51°19.152 2°56.917 4.8 308 16.2 100810 47
2011-07-20 07:42:57 51°19.159 2°56.941 5 319 16.2 100810 48
2011-07-20 07:43:02 51°19.166 2°56.964 4.6 303 16.2 100810 48
2011-07-20 07:43:07 51°19.173 2°56.988 5 320 16.2 100810 47
2011-07-20 07:43:12 51°19.179 2°57.012 4.7 309 16.2 100810 47
2011-07-20 07:43:17 51°19.186 2°57.036 4.8 320 16.2 100800 45
2011-07-20 07:43:23 51°19.194 2°57.064 4.9 307 16.2 100800 45
2011-07-20 07:43:27 51°19.2 2°57.083 4.6 321 16.2 100800 46
2011-07-20 07:43:32 51°19.207 2°57.107 4.4 307 16.2 100800 46
2011-07-20 07:43:36 51°19.212 2°57.126 4.9 320 16.2 100810 48
2011-07-20 07:43:42 51°19.221 2°57.154 5.3 279 16.2 100810 48
2011-07-20 07:43:48 51°19.23 2°57.182 5 320 16.2 100800 46
2011-07-20 07:43:52 51°19.236 2°57.2 5.3 307 16.2 100800 46
2011-07-20 07:43:56 51°19.243 2°57.218 5.3 318 16.2 100800 47
2011-07-20 07:44:02 51°19.253 2°57.245 5.3 304 16.2 100800 47
2011-07-20 07:44:08 51°19.263 2°57.272 5.6 317 16.2 100810 48
2011-07-20 07:44:12 51°19.269 2°57.29 4.9 301 16.2 100810 48
2011-07-20 07:44:17 51°19.278 2°57.312 4.6 317 16.2 100800 46
2011-07-20 07:44:22 51°19.287 2°57.335 4.6 307 16.2 100800 46
2011-07-20 07:44:28 51°19.297 2°57.362 5.1 318 16.2 100810 47
2011-07-20 07:44:32 51°19.304 2°57.38 4.6 304 16.2 100810 47
2011-07-20 07:44:37 51°19.312 2°57.403 4.6 319 16.2 100810 46
2011-07-20 07:44:43 51°19.322 2°57.43 4 308 16.2 100810 46
2011-07-20 07:44:47 51°19.328 2°57.448 4.8 320 16.2 100810 48
2011-07-20 07:44:52 51°19.337 2°57.471 5.1 303 16.2 100810 48
2011-07-20 07:44:57 51°19.345 2°57.494 4.6 319 16.2 100810 46
2011-07-20 07:45:03 51°19.355 2°57.521 4.2 303 16.2 100810 46
2011-07-20 07:45:07 51°19.362 2°57.539 5.2 321 16.2 100810 48
2011-07-20 07:45:12 51°19.37 2°57.561 4.4 302 16.2 100810 48
2011-07-20 07:45:17 51°19.378 2°57.584 5.6 318 16.2 100810 47
2011-07-20 07:45:23 51°19.388 2°57.611 4.9 306 16.2 100810 47
2011-07-20 07:45:27 51°19.394 2°57.629 4.7 318 16.2 100810 48
2011-07-20 07:45:32 51°19.402 2°57.652 4.5 309 16.2 100810 48
2011-07-20 07:45:37 51°19.41 2°57.675 5.1 316 16.2 100810 48
2011-07-20 07:45:43 51°19.419 2°57.702 4 283 16.2 100810 48
2011-07-20 07:45:47 51°19.425 2°57.721 4.4 317 16.2 100810 48
2011-07-20 07:45:52 51°19.431 2°57.744 4.5 304 16.2 100810 48
2011-07-20 07:45:57 51°19.437 2°57.768 4.3 321 16.2 100810 45
2011-07-20 07:46:02 51°19.444 2°57.792 4.7 303 16.2 100810 45
2011-07-20 07:46:07 51°19.45 2°57.816 4.8 321 16.2 100810 47
2011-07-20 07:46:12 51°19.457 2°57.84 4.8 304 16.2 100810 47
2011-07-20 07:46:16 51°19.462 2°57.859 4.9 322 16.2 100810 48
2011-07-20 07:46:22 51°19.47 2°57.888 5.3 307 16.2 100810 48
2011-07-20 07:46:28 51°19.478 2°57.916 5.6 321 16.3 100810 46
2011-07-20 07:46:32 51°19.484 2°57.935 5.5 309 16.3 100810 46
2011-07-20 07:46:36 51°19.489 2°57.954 5.8 320 16.3 100810 46
2011-07-20 07:46:42 51°19.497 2°57.982 5.1 321 16.3 100810 46
2011-07-20 07:46:48 51°19.506 2°58.01 5.4 324 16.3 100810 47
2011-07-20 07:46:52 51°19.512 2°58.029 5.1 301 16.3 100810 47
2011-07-20 07:46:57 51°19.521 2°58.051 5.2 319 16.3 100810 48
2011-07-20 07:47:02 51°19.529 2°58.074 5.5 302 16.3 100810 48
2011-07-20 07:47:07 51°19.537 2°58.096 5.4 319 16.3 100810 46
2011-07-20 07:47:12 51°19.545 2°58.118 5.2 307 16.3 100810 46
2011-07-20 07:47:17 51°19.553 2°58.14 4.6 321 16.3 100810 47
2011-07-20 07:47:23 51°19.563 2°58.167 5.5 302 16.3 100810 47
2011-07-20 07:47:27 51°19.57 2°58.185 5.6 320 16.3 100810 48
2011-07-20 07:47:32 51°19.578 2°58.208 4.9 304 16.3 100810 48
2011-07-20 07:47:37 51°19.587 2°58.23 4.9 319 16.3 100810 47
2011-07-20 07:47:43 51°19.596 2°58.257 5.1 282 16.3 100810 47
2011-07-20 07:47:47 51°19.603 2°58.275 5.3 322 16.3 100810 46
2011-07-20 07:47:52 51°19.61 2°58.298 5.1 306 16.3 100810 46
2011-07-20 07:47:57 51°19.617 2°58.321 5.1 320 16.3 100810 48
2011-07-20 07:48:03 51°19.625 2°58.35 4.6 306 16.3 100810 48
2011-07-20 07:48:07 51°19.63 2°58.369 5.1 323 16.3 100810 48
2011-07-20 07:48:12 51°19.637 2°58.393 4.6 303 16.3 100810 48
2011-07-20 07:48:17 51°19.643 2°58.416 5.3 319 16.3 100810 46
2011-07-20 07:48:23 51°19.651 2°58.445 5.1 302 16.3 100810 46
2011-07-20 07:48:28 51°19.658 2°58.469 5.4 321 16.3 100810 48
2011-07-20 07:48:32 51°19.663 2°58.488 4.9 309 16.3 100810 48
2011-07-20 07:48:37 51°19.67 2°58.511 4.3 321 16.3 100820 46
2011-07-20 07:48:42 51°19.676 2°58.535 4.4 307 16.3 100820 46
2011-07-20 07:48:48 51°19.684 2°58.564 4.4 319 16.3 100820 48
2011-07-20 07:48:52 51°19.689 2°58.582 5.3 304 16.3 100820 48
2011-07-20 07:48:56 51°19.694 2°58.601 5 318 16.3 100820 47
2011-07-20 07:49:02 51°19.703 2°58.629 4.9 305 16.3 100820 47
2011-07-20 07:49:07 51°19.709 2°58.653 4.7 320 16.3 100810 46
2011-07-20 07:49:12 51°19.716 2°58.676 4.9 307 16.3 100810 46
2011-07-20 07:49:16 51°19.722 2°58.695 5.2 324 16.3 100820 48
2011-07-20 07:49:22 51°19.731 2°58.722 4.8 300 16.3 100820 48
2011-07-20 07:49:28 51°19.74 2°58.749 4.7 320 16.3 100820 47
2011-07-20 07:49:32 51°19.747 2°58.767 5.5 306 16.3 100820 47
2011-07-20 07:49:37 51°19.755 2°58.789 5.3 319 16.3 100820 48
2011-07-20 07:49:42 51°19.764 2°58.811 5.1 278 16.3 100820 48
2011-07-20 07:49:48 51°19.774 2°58.837 4.7 318 16.3 100820 48
2011-07-20 07:49:52 51°19.781 2°58.854 5.2 307 16.3 100820 48
2011-07-20 07:49:57 51°19.789 2°58.877 5.2 321 16.3 100810 48
2011-07-20 07:50:02 51°19.798 2°58.899 6.1 302 16.3 100810 48
2011-07-20 07:50:08 51°19.808 2°58.925 4.9 318 16.3 100810 47
2011-07-20 07:50:12 51°19.815 2°58.943 4.8 304 16.3 100810 47
2011-07-20 07:50:17 51°19.822 2°58.965 5.2 319 16.3 100820 47
2011-07-20 07:50:23 51°19.831 2°58.993 5.9 302 16.3 100820 47
2011-07-20 07:50:28 51°19.838 2°59.016 5.3 319 16.3 100810 48
2011-07-20 07:50:32 51°19.844 2°59.035 4.5 303 16.3 100810 48
2011-07-20 07:50:37 51°19.851 2°59.058 4.6 319 16.3 100810 47
2011-07-20 07:50:43 51°19.859 2°59.086 5.3 303 16.3 100810 47
2011-07-20 07:50:48 51°19.865 2°59.109 4.1 320 16.3 100810 48
2011-07-20 07:50:52 51°19.87 2°59.128 4.3 307 16.3 100810 48
2011-07-20 07:50:57 51°19.877 2°59.151 3.9 321 16.3 100810 48
2011-07-20 07:51:02 51°19.884 2°59.175 4.8 303 16.3 100810 48
2011-07-20 07:51:08 51°19.892 2°59.203 4.6 320 16.2 100820 47
2011-07-20 07:51:12 51°19.897 2°59.221 5.1 302 16.2 100820 47
2011-07-20 07:51:17 51°19.904 2°59.244 5 321 16.2 100820 46
2011-07-20 07:51:22 51°19.912 2°59.266 4.7 306 16.2 100820 46
2011-07-20 07:51:27 51°19.92 2°59.289 4.5 322 16.2 100820 46
2011-07-20 07:51:32 51°19.928 2°59.311 4.9 303 16.2 100820 46
2011-07-20 07:51:36 51°19.935 2°59.329 5.4 322 16.2 100820 47
2011-07-20 07:51:42 51°19.945 2°59.355 5.2 278 16.2 100820 47
2011-07-20 07:51:47 51°19.953 2°59.378 5.2 321 16.2 100820 46
2011-07-20 07:51:52 51°19.96 2°59.4 5.6 304 16.2 100820 46
2011-07-20 07:51:56 51°19.966 2°59.418 6.2 320 16.2 100810 48
2011-07-20 07:52:02 51°19.975 2°59.446 5.9 303 16.2 100810 48
2011-07-20 07:52:08 51°19.983 2°59.474 4.8 321 16.3 100820 47
2011-07-20 07:52:12 51°19.989 2°59.493 4.7 304 16.3 100820 47
2011-07-20 07:52:16 51°19.993 2°59.511 4.8 321 16.3 100810 48
2011-07-20 07:52:22 51°20.001 2°59.54 4.8 302 16.3 100810 48
2011-07-20 07:52:28 51°20.008 2°59.568 4.3 322 16.3 100810 46
2011-07-20 07:52:32 51°20.014 2°59.587 4.5 323 16.3 100810 46
2011-07-20 07:52:37 51°20.02 2°59.611 4.2 321 16.3 100810 46
2011-07-20 07:52:43 51°20.028 2°59.639 3.9 305 16.3 100810 46
2011-07-20 07:52:48 51°20.034 2°59.663 4.1 323 16.3 100820 48
2011-07-20 07:52:52 51°20.039 2°59.681 4.3 301 16.3 100820 48
2011-07-20 07:52:57 51°20.046 2°59.704 4 324 16.3 100810 48
2011-07-20 07:53:02 51°20.053 2°59.728 4.4 303 16.3 100810 48
2011-07-20 07:53:08 51°20.06 2°59.756 3.6 325 16.2 100810 48
2011-07-20 07:53:12 51°20.065 2°59.774 3.9 301 16.2 100810 48
2011-07-20 07:53:17 51°20.072 2°59.798 4 325 16.2 100810 46
2011-07-20 07:53:22 51°20.078 2°59.822 3.9 304 16.2 100810 46
2011-07-20 07:53:28 51°20.085 2°59.85 3.9 325 16.2 100810 46
2011-07-20 07:53:32 51°20.09 2°59.869 3.7 303 16.2 100810 46
2011-07-20 07:53:37 51°20.096 2°59.893 3.8 323 16.2 100820 48
2011-07-20 07:53:42 51°20.103 2°59.916 3.8 279 16.2 100820 48
2011-07-20 07:53:47 51°20.109 2°59.939 4.2 323 16.2 100820 47
2011-07-20 07:53:52 51°20.116 2°59.963 4.1 323 16.2 100820 47
2011-07-20 07:53:57 51°20.122 2°59.986 4.5 322 16.2 100820 45
2011-07-20 07:54:02 51°20.129 3°0.009 4.8 303 16.2 100820 45
2011-07-20 07:54:07 51°20.136 3°0.032 4.8 319 16.2 100810 48
2011-07-20 07:54:12 51°20.144 3°0.055 4.7 303 16.2 100810 48
2011-07-20 07:54:16 51°20.15 3°0.073 4.9 321 16.2 100810 48
2011-07-20 07:54:22 51°20.158 3°0.1 4.8 307 16.2 100810 48
2011-07-20 07:54:27 51°20.166 3°0.123 4.3 319 16.2 100820 46
2011-07-20 07:54:32 51°20.173 3°0.145 5.3 302 16.2 100820 46
2011-07-20 07:54:36 51°20.179 3°0.163 5.7 322 16.2 100810 48
2011-07-20 07:54:42 51°20.187 3°0.191 5.1 303 16.2 100810 48
2011-07-20 07:54:48 51°20.196 3°0.219 5.1 321 16.3 100810 46
2011-07-20 07:54:52 51°20.201 3°0.237 5.3 301 16.3 100810 46
2011-07-20 07:54:56 51°20.207 3°0.255 4.9 321 16.3 100810 46
2011-07-20 07:55:02 51°20.215 3°0.283 4.4 306 16.3 100810 46
2011-07-20 07:55:08 51°20.222 3°0.311 4.5 321 16.3 100810 47
2011-07-20 07:55:12 51°20.227 3°0.33 4.4 308 16.3 100810 47
2011-07-20 07:55:17 51°20.234 3°0.353 3.8 322 16.2 100810 48
2011-07-20 07:55:22 51°20.24 3°0.377 4.3 304 16.2 100810 48
2011-07-20 07:55:28 51°20.248 3°0.404 4.1 321 16.3 100810 46
2011-07-20 07:55:32 51°20.253 3°0.423 3.7 304 16.3 100810 46
2011-07-20 07:55:37 51°20.261 3°0.445 3.8 321 16.3 100810 48
2011-07-20 07:55:42 51°20.269 3°0.467 4.1 278 16.3 100810 48
2011-07-20 07:55:48 51°20.279 3°0.493 4.7 321 16.3 100810 48
2011-07-20 07:55:52 51°20.286 3°0.511 5.1 301 16.3 100810 48
2011-07-20 07:55:57 51°20.294 3°0.533 4.6 321 16.3 100810 47
2011-07-20 07:56:02 51°20.302 3°0.555 3.8 301 16.3 100810 47
2011-07-20 07:56:07 51°20.311 3°0.577 2.6 320 16.3 100820 46
2011-07-20 07:56:12 51°20.319 3°0.598 4.6 305 16.3 100820 46
2011-07-20 07:56:17 51°20.327 3°0.62 4.3 321 16.3 100810 47
2011-07-20 07:56:22 51°20.335 3°0.642 4.1 306 16.3 100810 47
2011-07-20 07:56:27 51°20.343 3°0.664 4.7 319 16.3 100810 47
2011-07-20 07:56:32 51°20.351 3°0.686 5.3 324 16.3 100810 47
2011-07-20 07:56:37 51°20.359 3°0.708 4.8 316 16.3 100810 47
2011-07-20 07:56:42 51°20.366 3°0.73 5 278 16.3 100810 47
2011-07-20 07:56:47 51°20.374 3°0.752 5.3 321 16.3 100820 48
2011-07-20 07:56:52 51°20.382 3°0.774 5.8 304 16.3 100820 48
2011-07-20 07:56:56 51°20.388 3°0.791 5.3 320 16.4 100810 48
2011-07-20 07:57:02 51°20.397 3°0.817 5.7 302 16.4 100810 48
2011-07-20 07:57:08 51°20.406 3°0.844 5.2 320 16.4 100810 48
2011-07-20 07:57:12 51°20.413 3°0.861 4.8 305 16.4 100810 48
2011-07-20 07:57:16 51°20.419 3°0.879 5.3 322 16.4 100810 46
2011-07-20 07:57:22 51°20.427 3°0.906 4.8 307 16.4 100810 46
2011-07-20 07:57:28 51°20.436 3°0.933 5 320 16.4 100810 48
2011-07-20 07:57:32 51°20.442 3°0.95 4.7 307 16.4 100810 48
2011-07-20 07:57:37 51°20.449 3°0.973 4.8 322 16.4 100820 46
2011-07-20 07:57:42 51°20.456 3°0.995 4.7 301 16.4 100820 46
2011-07-20 07:57:48 51°20.465 3°1.021 5 319 16.4 100810 48
2011-07-20 07:57:52 51°20.471 3°1.039 5.6 308 16.4 100810 48
2011-07-20 07:57:57 51°20.478 3°1.062 4.8 320 16.4 100810 46
2011-07-20 07:58:02 51°20.484 3°1.085 4.9 322 16.4 100810 46
2011-07-20 07:58:07 51°20.49 3°1.108 4.9 321 16.4 100810 46
2011-07-20 07:58:12 51°20.496 3°1.131 4 309 16.4 100810 46
2011-07-20 07:58:17 51°20.501 3°1.154 4 321 16.4 100810 48
2011-07-20 07:58:23 51°20.508 3°1.182 4.8 308 16.4 100810 48
2011-07-20 07:58:27 51°20.512 3°1.201 4.4 321 16.4 100820 46
2011-07-20 07:58:32 51°20.517 3°1.224 4.4 309 16.4 100820 46
2011-07-20 07:58:37 51°20.523 3°1.248 3.9 323 16.4 100810 47
2011-07-20 07:58:43 51°20.53 3°1.275 4.6 308 16.4 100810 47
2011-07-20 07:58:47 51°20.535 3°1.294 4.5 320 16.4 100820 47
2011-07-20 07:58:52 51°20.541 3°1.317 3.9 303 16.4 100820 47
2011-07-20 07:58:57 51°20.547 3°1.34 4 322 16.4 100810 46
2011-07-20 07:59:03 51°20.553 3°1.368 3.8 308 16.4 100810 46
2011-07-20 07:59:07 51°20.558 3°1.386 3.7 321 16.4 100820 46
2011-07-20 07:59:12 51°20.564 3°1.409 4.3 323 16.4 100820 46
2011-07-20 07:59:17 51°20.57 3°1.432 5.2 322 16.4 100820 45
2011-07-20 07:59:22 51°20.576 3°1.455 4.4 301 16.4 100820 45
2011-07-20 07:59:28 51°20.583 3°1.482 4.5 324 16.4 100810 46
2011-07-20 07:59:32 51°20.588 3°1.5 5.3 307 16.4 100810 46
2011-07-20 07:59:37 51°20.594 3°1.523 4.1 321 16.4 100820 48
2011-07-20 07:59:43 51°20.601 3°1.551 4.4 323 16.4 100820 48
2011-07-20 07:59:48 51°20.608 3°1.573 3.6 322 16.4 100820 46
2011-07-20 07:59:52 51°20.613 3°1.591 4.5 307 16.4 100820 46
2011-07-20 07:59:57 51°20.619 3°1.614 4.5 324 16.4 100810 46
2011-07-20 08:00:02 51°20.625 3°1.637 3.8 324 16.4 100810 46
2011-07-20 08:00:08 51°20.633 3°1.664 4.5 321 16.4 100820 47
2011-07-20 08:00:12 51°20.638 3°1.682 4.6 304 16.4 100820 47
2011-07-20 08:00:17 51°20.644 3°1.704 4.7 320 16.4 100810 46
2011-07-20 08:00:22 51°20.651 3°1.727 4.6 321 16.4 100810 46
2011-07-20 08:00:27 51°20.657 3°1.749 4 320 16.5 100820 46
2011-07-20 08:00:32 51°20.663 3°1.772 4.2 302 16.5 100820 46
2011-07-20 08:00:37 51°20.669 3°1.793 4.6 318 16.5 100820 46
2011-07-20 08:00:42 51°20.678 3°1.811 3.9 284 16.5 100820 46
2011-07-20 08:00:47 51°20.687 3°1.827 4.8 318 16.5 100820 47
2011-07-20 08:00:52 51°20.697 3°1.84 4 303 16.5 100820 47
2011-07-20 08:00:56 51°20.706 3°1.849 3.5 318 16.5 100820 46
2011-07-20 08:01:02 51°20.72 3°1.859 4.1 306 16.5 100820 46
2011-07-20 08:01:07 51°20.731 3°1.864 4.5 316 16.5 100820 46
2011-07-20 08:01:12 51°20.743 3°1.867 5 306 16.5 100820 46
2011-07-20 08:01:16 51°20.753 3°1.869 5.9 318 16.5 100820 47
2011-07-20 08:01:22 51°20.767 3°1.866 5.7 304 16.5 100820 47
2011-07-20 08:01:28 51°20.78 3°1.86 4.9 321 16.5 100820 46
2011-07-20 08:01:32 51°20.788 3°1.854 6.2 304 16.5 100820 46
2011-07-20 08:01:36 51°20.796 3°1.846 5.6 324 16.5 100820 46
2011-07-20 08:01:42 51°20.807 3°1.831 6.4 300 16.5 100820 46
2011-07-20 08:01:48 51°20.816 3°1.813 5.7 325 16.5 100810 48
2011-07-20 08:01:52 51°20.821 3°1.799 5.5 327 16.5 100810 48
2011-07-20 08:01:57 51°20.826 3°1.78 6 328 16.5 100810 46
2011-07-20 08:02:02 51°20.829 3°1.761 6.4 329 16.5 100810 46
2011-07-20 08:02:08 51°20.831 3°1.736 5.1 333 16.5 100810 47
2011-07-20 08:02:12 51°20.832 3°1.72 5.7 333 16.5 100810 47
2011-07-20 08:02:17 51°20.831 3°1.699 5.7 333 16.5 100810 46
2011-07-20 08:02:22 51°20.828 3°1.678 5.3 335 16.5 100810 46
2011-07-20 08:02:27 51°20.823 3°1.657 5.8 337 16.5 100810 46
2011-07-20 08:02:32 51°20.817 3°1.638 7.4 339 16.5 100810 46
2011-07-20 08:02:37 51°20.81 3°1.62 6.1 342 16.5 100810 47
2011-07-20 08:02:42 51°20.802 3°1.603 6.3 285 16.5 100810 47
2011-07-20 08:02:47 51°20.793 3°1.588 6.3 344 16.5 100820 47
2011-07-20 08:02:52 51°20.782 3°1.573 6.1 346 16.5 100820 47
2011-07-20 08:02:57 51°20.772 3°1.56 4.9 345 16.5 100810 46
2011-07-20 08:03:02 51°20.76 3°1.548 5.8 346 16.5 100810 46
2011-07-20 08:03:07 51°20.749 3°1.535 5 344 16.5 100810 47
2011-07-20 08:03:12 51°20.737 3°1.523 5.7 344 16.5 100810 47
2011-07-20 08:03:17 51°20.724 3°1.51 5.1 345 16.5 100810 47
2011-07-20 08:03:22 51°20.712 3°1.498 5.4 342 16.5 100810 47
2011-07-20 08:03:27 51°20.699 3°1.486 6.7 344 16.5 100820 47
2011-07-20 08:03:32 51°20.687 3°1.473 6.2 347 16.5 100820 47
2011-07-20 08:03:36 51°20.677 3°1.464 6.6 343 16.4 100820 46
2011-07-20 08:03:42 51°20.661 3°1.449 6.3 282 16.4 100820 46
2011-07-20 08:03:47 51°20.648 3°1.437 5.6 343 16.4 100820 46
2011-07-20 08:03:52 51°20.636 3°1.424 6.3 344 16.4 100820 46
2011-07-20 08:03:56 51°20.626 3°1.412 6.4 342 16.4 100820 46
2011-07-20 08:04:02 51°20.611 3°1.395 6.1 342 16.4 100820 46
2011-07-20 08:04:08 51°20.597 3°1.378 6.2 344 16.4 100820 47
2011-07-20 08:04:12 51°20.587 3°1.367 5 344 16.4 100820 47
2011-07-20 08:04:16 51°20.577 3°1.357 5.2 343 16.4 100820 47
2011-07-20 08:04:22 51°20.562 3°1.341 5.1 343 16.4 100820 47
2011-07-20 08:04:28 51°20.546 3°1.326 5.7 344 16.4 100820 47
2011-07-20 08:04:32 51°20.536 3°1.316 5.1 344 16.4 100820 47
2011-07-20 08:04:37 51°20.523 3°1.304 6 343 16.4 100820 46
2011-07-20 08:04:42 51°20.511 3°1.291 5.5 344 16.4 100820 46
2011-07-20 08:04:47 51°20.498 3°1.279 5.2 340 16.4 100820 46
2011-07-20 08:04:52 51°20.486 3°1.267 4.4 344 16.4 100820 46
2011-07-20 08:04:57 51°20.475 3°1.256 4.8 343 16.4 100820 48
2011-07-20 08:05:03 51°20.463 3°1.243 6 345 16.4 100820 48
2011-07-20 08:05:07 51°20.455 3°1.234 4.7 344 16.4 100820 46
2011-07-20 08:05:12 51°20.447 3°1.224 5 346 16.4 100820 46
2011-07-20 08:05:17 51°20.439 3°1.214 5.2 347 16.3 100820 48
2011-07-20 08:05:23 51°20.429 3°1.202 6.2 349 16.3 100820 48
2011-07-20 08:05:27 51°20.424 3°1.193 4.5 349 16.4 100820 48
2011-07-20 08:05:32 51°20.417 3°1.184 4.9 347 16.4 100820 48
2011-07-20 08:05:37 51°20.411 3°1.174 4.8 348 16.3 100820 46
2011-07-20 08:05:43 51°20.404 3°1.163 4.8 279 16.3 100820 46
2011-07-20 08:05:47 51°20.399 3°1.156 4.9 346 16.3 100820 46
2011-07-20 08:05:52 51°20.394 3°1.147 4.4 349 16.3 100820 46
2011-07-20 08:05:57 51°20.389 3°1.138 4.3 349 16.3 100820 46
2011-07-20 08:06:03 51°20.383 3°1.128 4.7 350 16.3 100820 46
2011-07-20 08:06:07 51°20.379 3°1.122 4 348 16.3 100820 48
2011-07-20 08:06:12 51°20.375 3°1.113 4.4 349 16.3 100820 48
2011-07-20 08:06:16 51°20.372 3°1.107 4.2 348 16.3 100830 47
2011-07-20 08:06:22 51°20.367 3°1.097 4.6 347 16.3 100830 47
2011-07-20 08:06:27 51°20.363 3°1.089 4.8 349 16.3 100830 47
2011-07-20 08:06:32 51°20.359 3°1.08 4 347 16.3 100830 47
2011-07-20 08:06:36 51°20.355 3°1.074 4.8 347 16.2 100830 48
2011-07-20 08:06:42 51°20.35 3°1.063 4.4 278 16.2 100830 48
2011-07-20 08:06:48 51°20.345 3°1.052 4.5 346 16.2 100830 46
2011-07-20 08:06:52 51°20.342 3°1.045 4.3 345 16.2 100830 46
2011-07-20 08:06:56 51°20.339 3°1.037 4.8 345 16.2 100830 48
2011-07-20 08:07:02 51°20.334 3°1.026 4.9 344 16.2 100830 48
2011-07-20 08:07:08 51°20.329 3°1.014 4.9 344 16.2 100830 46
2011-07-20 08:07:12 51°20.326 3°1.006 5.3 344 16.2 100830 46
2011-07-20 08:07:17 51°20.322 3°0.995 4.8 343 16.2 100820 44
2011-07-20 08:07:22 51°20.319 3°0.985 5.4 344 16.2 100820 44
2011-07-20 08:07:27 51°20.315 3°0.974 4.8 342 16.1 100830 46
2011-07-20 08:07:32 51°20.311 3°0.962 4.9 341 16.1 100830 46
2011-07-20 08:07:37 51°20.308 3°0.951 4.9 342 16.2 100820 48
2011-07-20 08:07:43 51°20.304 3°0.937 5 342 16.2 100820 48
2011-07-20 08:07:47 51°20.301 3°0.928 4.6 342 16.1 100830 47
2011-07-20 08:07:52 51°20.298 3°0.916 5 342 16.1 100830 47
2011-07-20 08:07:57 51°20.294 3°0.904 5.1 342 16.1 100830 47
2011-07-20 08:08:03 51°20.29 3°0.889 5 342 16.1 100830 47
2011-07-20 08:08:07 51°20.287 3°0.88 4.6 343 16.2 100820 48
2011-07-20 08:08:12 51°20.283 3°0.867 4.9 341 16.2 100820 48
2011-07-20 08:08:17 51°20.279 3°0.853 5.8 342 16.2 100830 48
2011-07-20 08:08:23 51°20.274 3°0.835 6 337 16.2 100830 48
2011-07-20 08:08:27 51°20.271 3°0.823 5.4 338 16.2 100830 46
2011-07-20 08:08:32 51°20.266 3°0.807 6.5 336 16.2 100830 46
2011-07-20 08:08:37 51°20.261 3°0.79 5.8 336 16.2 100830 47
2011-07-20 08:08:42 51°20.256 3°0.772 5.7 279 16.2 100830 47
2011-07-20 08:08:48 51°20.249 3°0.751 5.6 338 16.2 100820 46
2011-07-20 08:08:52 51°20.244 3°0.737 7.6 339 16.2 100820 46
2011-07-20 08:08:56 51°20.24 3°0.722 6.9 340 16.2 100830 47
2011-07-20 08:09:02 51°20.232 3°0.7 7 340 16.2 100830 47
2011-07-20 08:09:07 51°20.226 3°0.681 6 341 16.2 100820 48
2011-07-20 08:09:12 51°20.22 3°0.662 5.8 339 16.2 100820 48
2011-07-20 08:09:16 51°20.215 3°0.647 6.6 337 16.2 100820 48
2011-07-20 08:09:22 51°20.208 3°0.624 6.2 339 16.2 100820 48
2011-07-20 08:09:27 51°20.202 3°0.604 5.8 337 16.2 100820 48
2011-07-20 08:09:32 51°20.196 3°0.584 5.7 335 16.2 100820 48
2011-07-20 08:09:36 51°20.192 3°0.567 6.8 335 16.2 100820 47
2011-07-20 08:09:42 51°20.186 3°0.542 6.3 335 16.2 100820 47
2011-07-20 08:09:48 51°20.181 3°0.517 7.4 334 16.2 100820 46
2011-07-20 08:09:52 51°20.178 3°0.499 6.1 335 16.2 100820 46
2011-07-20 08:09:57 51°20.175 3°0.478 6.2 336 16.3 100820 46